Data supplied by UK-AIR on 8/9/2010
All Data GMT hour ending 
Status: R =Ratified P=Provisional,P*=As supplied
,,Chepstow A48,,,,,,,,,,,,,,,,,,,,,,,
Date,time,"PM10 particulate matter (Hourly measured)",status,unit,"Nitric oxide",status,unit,"Nitrogen dioxide",status,unit,"Nitrogen oxides as nitrogen dioxide",status,unit
 
01-01-2009,01:00,,,,,,,,,,,,
01-01-2009,02:00,,,,8,R,ugm-3,13,R,ugm-3,25,R,ugm-3
01-01-2009,03:00,,,,4,R,ugm-3,15,R,ugm-3,21,R,ugm-3
01-01-2009,04:00,,,,4,R,ugm-3,11,R,ugm-3,17,R,ugm-3
01-01-2009,05:00,,,,4,R,ugm-3,13,R,ugm-3,19,R,ugm-3
01-01-2009,06:00,,,,1,R,ugm-3,15,R,ugm-3,17,R,ugm-3
01-01-2009,07:00,,,,4,R,ugm-3,17,R,ugm-3,23,R,ugm-3
01-01-2009,08:00,,,,4,R,ugm-3,15,R,ugm-3,21,R,ugm-3
01-01-2009,09:00,,,,6,R,ugm-3,15,R,ugm-3,25,R,ugm-3
01-01-2009,10:00,,,,5,R,ugm-3,13,R,ugm-3,21,R,ugm-3
01-01-2009,11:00,,,,10,R,ugm-3,17,R,ugm-3,32,R,ugm-3
01-01-2009,12:00,,,,15,R,ugm-3,19,R,ugm-3,42,R,ugm-3
01-01-2009,13:00,,,,16,R,ugm-3,23,R,ugm-3,48,R,ugm-3
01-01-2009,14:00,,,,23,R,ugm-3,36,R,ugm-3,71,R,ugm-3
01-01-2009,15:00,,,,18,R,ugm-3,32,R,ugm-3,59,R,ugm-3
01-01-2009,16:00,,,,19,R,ugm-3,29,R,ugm-3,57,R,ugm-3
01-01-2009,17:00,,,,11,R,ugm-3,27,R,ugm-3,44,R,ugm-3
01-01-2009,18:00,,,,14,R,ugm-3,31,R,ugm-3,52,R,ugm-3
01-01-2009,19:00,,,,9,R,ugm-3,23,R,ugm-3,36,R,ugm-3
01-01-2009,20:00,,,,9,R,ugm-3,23,R,ugm-3,36,R,ugm-3
01-01-2009,21:00,,,,8,R,ugm-3,21,R,ugm-3,32,R,ugm-3
01-01-2009,22:00,,,,6,R,ugm-3,21,R,ugm-3,31,R,ugm-3
01-01-2009,23:00,,,,6,R,ugm-3,17,R,ugm-3,27,R,ugm-3
01-01-2009,24:00,,,,3,R,ugm-3,17,R,ugm-3,21,R,ugm-3
02-01-2009,01:00,,,,9,R,ugm-3,19,R,ugm-3,32,R,ugm-3
02-01-2009,02:00,,,,0,R,ugm-3,15,R,ugm-3,15,R,ugm-3
02-01-2009,03:00,,,,5,R,ugm-3,19,R,ugm-3,27,R,ugm-3
02-01-2009,04:00,,,,5,R,ugm-3,31,R,ugm-3,38,R,ugm-3
02-01-2009,05:00,,,,8,R,ugm-3,36,R,ugm-3,48,R,ugm-3
02-01-2009,06:00,,,,18,R,ugm-3,38,R,ugm-3,65,R,ugm-3
02-01-2009,07:00,,,,21,R,ugm-3,42,R,ugm-3,74,R,ugm-3
02-01-2009,08:00,,,,54,R,ugm-3,53,R,ugm-3,136,R,ugm-3
02-01-2009,09:00,,,,35,R,ugm-3,48,R,ugm-3,101,R,ugm-3
02-01-2009,10:00,,,,54,R,ugm-3,53,R,ugm-3,136,R,ugm-3
02-01-2009,11:00,,,,56,R,ugm-3,55,R,ugm-3,141,R,ugm-3
02-01-2009,12:00,,,,64,R,ugm-3,59,R,ugm-3,157,R,ugm-3
02-01-2009,13:00,,,,44,R,ugm-3,50,R,ugm-3,117,R,ugm-3
02-01-2009,14:00,,,,41,R,ugm-3,50,R,ugm-3,113,R,ugm-3
02-01-2009,15:00,,,,41,R,ugm-3,53,R,ugm-3,117,R,ugm-3
02-01-2009,16:00,,,,46,R,ugm-3,55,R,ugm-3,126,R,ugm-3
02-01-2009,17:00,,,,31,R,ugm-3,48,R,ugm-3,96,R,ugm-3
02-01-2009,18:00,,,,31,R,ugm-3,48,R,ugm-3,96,R,ugm-3
02-01-2009,19:00,,,,20,R,ugm-3,36,R,ugm-3,67,R,ugm-3
02-01-2009,20:00,,,,18,R,ugm-3,32,R,ugm-3,59,R,ugm-3
02-01-2009,21:00,,,,10,R,ugm-3,23,R,ugm-3,38,R,ugm-3
02-01-2009,22:00,,,,8,R,ugm-3,23,R,ugm-3,34,R,ugm-3
02-01-2009,23:00,,,,9,R,ugm-3,21,R,ugm-3,34,R,ugm-3
02-01-2009,24:00,,,,5,R,ugm-3,13,R,ugm-3,21,R,ugm-3
03-01-2009,01:00,,,,5,R,ugm-3,13,R,ugm-3,21,R,ugm-3
03-01-2009,02:00,,,,5,R,ugm-3,11,R,ugm-3,19,R,ugm-3
03-01-2009,03:00,,,,1,R,ugm-3,11,R,ugm-3,13,R,ugm-3
03-01-2009,04:00,,,,1,R,ugm-3,8,R,ugm-3,10,R,ugm-3
03-01-2009,05:00,,,,4,R,ugm-3,13,R,ugm-3,19,R,ugm-3
03-01-2009,06:00,,,,10,R,ugm-3,21,R,ugm-3,36,R,ugm-3
03-01-2009,07:00,,,,11,R,ugm-3,25,R,ugm-3,42,R,ugm-3
03-01-2009,08:00,,,,19,R,ugm-3,32,R,ugm-3,61,R,ugm-3
03-01-2009,09:00,,,,35,R,ugm-3,50,R,ugm-3,103,R,ugm-3
03-01-2009,10:00,,,,55,R,ugm-3,59,R,ugm-3,143,R,ugm-3
03-01-2009,11:00,,,,44,R,ugm-3,53,R,ugm-3,120,R,ugm-3
03-01-2009,12:00,,,,39,R,ugm-3,46,R,ugm-3,105,R,ugm-3
03-01-2009,13:00,,,,38,R,ugm-3,44,R,ugm-3,101,R,ugm-3
03-01-2009,14:00,,,,39,R,ugm-3,50,R,ugm-3,109,R,ugm-3
03-01-2009,15:00,,,,35,R,ugm-3,48,R,ugm-3,101,R,ugm-3
03-01-2009,16:00,,,,40,R,ugm-3,59,R,ugm-3,120,R,ugm-3
03-01-2009,17:00,,,,35,R,ugm-3,57,R,ugm-3,111,R,ugm-3
03-01-2009,18:00,,,,24,R,ugm-3,53,R,ugm-3,90,R,ugm-3
03-01-2009,19:00,,,,15,R,ugm-3,46,R,ugm-3,69,R,ugm-3
03-01-2009,20:00,,,,13,R,ugm-3,38,R,ugm-3,57,R,ugm-3
03-01-2009,21:00,,,,19,R,ugm-3,42,R,ugm-3,71,R,ugm-3
03-01-2009,22:00,,,,11,R,ugm-3,36,R,ugm-3,53,R,ugm-3
03-01-2009,23:00,,,,8,R,ugm-3,31,R,ugm-3,42,R,ugm-3
03-01-2009,24:00,,,,11,R,ugm-3,29,R,ugm-3,46,R,ugm-3
04-01-2009,01:00,,,,4,R,ugm-3,19,R,ugm-3,25,R,ugm-3
04-01-2009,02:00,,,,4,R,ugm-3,17,R,ugm-3,23,R,ugm-3
04-01-2009,03:00,,,,8,R,ugm-3,19,R,ugm-3,31,R,ugm-3
04-01-2009,04:00,,,,1,R,ugm-3,15,R,ugm-3,17,R,ugm-3
04-01-2009,05:00,,,,6,R,ugm-3,25,R,ugm-3,34,R,ugm-3
04-01-2009,06:00,,,,36,R,ugm-3,36,R,ugm-3,92,R,ugm-3
04-01-2009,07:00,,,,23,R,ugm-3,40,R,ugm-3,74,R,ugm-3
04-01-2009,08:00,,,,40,R,ugm-3,48,R,ugm-3,109,R,ugm-3
04-01-2009,09:00,,,,29,R,ugm-3,36,R,ugm-3,80,R,ugm-3
04-01-2009,10:00,,,,71,R,ugm-3,65,R,ugm-3,174,R,ugm-3
04-01-2009,11:00,,,,83,R,ugm-3,69,R,ugm-3,195,R,ugm-3
04-01-2009,12:00,,,,51,R,ugm-3,61,R,ugm-3,139,R,ugm-3
04-01-2009,13:00,,,,70,R,ugm-3,80,R,ugm-3,187,R,ugm-3
04-01-2009,14:00,,,,99,R,ugm-3,84,R,ugm-3,235,R,ugm-3
04-01-2009,15:00,,,,98,R,ugm-3,86,R,ugm-3,235,R,ugm-3
04-01-2009,16:00,,,,78,R,ugm-3,84,R,ugm-3,202,R,ugm-3
04-01-2009,17:00,,,,64,R,ugm-3,80,R,ugm-3,178,R,ugm-3
04-01-2009,18:00,,,,81,R,ugm-3,82,R,ugm-3,206,R,ugm-3
04-01-2009,19:00,,,,63,R,ugm-3,74,R,ugm-3,170,R,ugm-3
04-01-2009,20:00,,,,58,R,ugm-3,67,R,ugm-3,155,R,ugm-3
04-01-2009,21:00,,,,36,R,ugm-3,57,R,ugm-3,113,R,ugm-3
04-01-2009,22:00,,,,34,R,ugm-3,50,R,ugm-3,101,R,ugm-3
04-01-2009,23:00,,,,24,R,ugm-3,46,R,ugm-3,82,R,ugm-3
04-01-2009,24:00,,,,14,R,ugm-3,34,R,ugm-3,55,R,ugm-3
05-01-2009,01:00,,,,5,R,ugm-3,17,R,ugm-3,25,R,ugm-3
05-01-2009,02:00,,,,4,R,ugm-3,8,R,ugm-3,13,R,ugm-3
05-01-2009,03:00,,,,6,R,ugm-3,11,R,ugm-3,21,R,ugm-3
05-01-2009,04:00,,,,3,R,ugm-3,10,R,ugm-3,13,R,ugm-3
05-01-2009,05:00,,,,11,R,ugm-3,13,R,ugm-3,31,R,ugm-3
05-01-2009,06:00,,,,9,R,ugm-3,10,R,ugm-3,23,R,ugm-3
05-01-2009,07:00,,,,18,R,ugm-3,23,R,ugm-3,50,R,ugm-3
05-01-2009,08:00,,,,53,R,ugm-3,52,R,ugm-3,132,R,ugm-3
05-01-2009,09:00,,,,50,R,ugm-3,46,R,ugm-3,122,R,ugm-3
05-01-2009,10:00,,,,33,R,ugm-3,38,R,ugm-3,88,R,ugm-3
05-01-2009,11:00,,,,34,R,ugm-3,38,R,ugm-3,90,R,ugm-3
05-01-2009,12:00,,,,41,R,ugm-3,42,R,ugm-3,105,R,ugm-3
05-01-2009,13:00,,,,43,R,ugm-3,40,R,ugm-3,105,R,ugm-3
05-01-2009,14:00,,,,39,R,ugm-3,40,R,ugm-3,99,R,ugm-3
05-01-2009,15:00,,,,50,R,ugm-3,46,R,ugm-3,122,R,ugm-3
05-01-2009,16:00,,,,,,,,,,,,
05-01-2009,17:00,,,,36,R,ugm-3,46,R,ugm-3,101,R,ugm-3
05-01-2009,18:00,,,,38,R,ugm-3,48,R,ugm-3,105,R,ugm-3
05-01-2009,19:00,,,,20,R,ugm-3,34,R,ugm-3,65,R,ugm-3
05-01-2009,20:00,,,,13,R,ugm-3,27,R,ugm-3,46,R,ugm-3
05-01-2009,21:00,,,,10,R,ugm-3,23,R,ugm-3,38,R,ugm-3
05-01-2009,22:00,,,,9,R,ugm-3,21,R,ugm-3,34,R,ugm-3
05-01-2009,23:00,,,,6,R,ugm-3,17,R,ugm-3,27,R,ugm-3
05-01-2009,24:00,,,,4,R,ugm-3,10,R,ugm-3,15,R,ugm-3
06-01-2009,01:00,,,,1,R,ugm-3,8,R,ugm-3,10,R,ugm-3
06-01-2009,02:00,,,,1,R,ugm-3,6,R,ugm-3,8,R,ugm-3
06-01-2009,03:00,,,,5,R,ugm-3,10,R,ugm-3,17,R,ugm-3
06-01-2009,04:00,,,,3,R,ugm-3,6,R,ugm-3,10,R,ugm-3
06-01-2009,05:00,,,,4,R,ugm-3,11,R,ugm-3,17,R,ugm-3
06-01-2009,06:00,,,,19,R,ugm-3,21,R,ugm-3,50,R,ugm-3
06-01-2009,07:00,,,,51,R,ugm-3,57,R,ugm-3,136,R,ugm-3
06-01-2009,08:00,,,,66,R,ugm-3,57,R,ugm-3,159,R,ugm-3
06-01-2009,09:00,,,,63,R,ugm-3,63,R,ugm-3,159,R,ugm-3
06-01-2009,10:00,,,,25,R,ugm-3,36,R,ugm-3,74,R,ugm-3
06-01-2009,11:00,,,,70,R,ugm-3,55,R,ugm-3,162,R,ugm-3
06-01-2009,12:00,,,,55,R,ugm-3,48,R,ugm-3,132,R,ugm-3
06-01-2009,13:00,,,,73,R,ugm-3,53,R,ugm-3,164,R,ugm-3
06-01-2009,14:00,,,,61,R,ugm-3,48,R,ugm-3,141,R,ugm-3
06-01-2009,15:00,,,,63,R,ugm-3,52,R,ugm-3,147,R,ugm-3
06-01-2009,16:00,,,,,,,,,,,,
06-01-2009,17:00,,,,,,,,,,,,
06-01-2009,18:00,,,,,,,,,,,,
06-01-2009,19:00,,,,,,,,,,,,
06-01-2009,20:00,,,,,,,,,,,,
06-01-2009,21:00,,,,,,,,,,,,
06-01-2009,22:00,,,,,,,,,,,,
06-01-2009,23:00,,,,,,,,,,,,
06-01-2009,24:00,,,,,,,,,,,,
07-01-2009,01:00,,,,,,,,,,,,
07-01-2009,02:00,,,,,,,,,,,,
07-01-2009,03:00,,,,,,,,,,,,
07-01-2009,04:00,,,,,,,,,,,,
07-01-2009,05:00,,,,,,,,,,,,
07-01-2009,06:00,,,,,,,,,,,,
07-01-2009,07:00,,,,,,,,,,,,
07-01-2009,08:00,,,,,,,,,,,,
07-01-2009,09:00,,,,,,,,,,,,
07-01-2009,10:00,,,,,,,,,,,,
07-01-2009,11:00,,,,,,,,,,,,
07-01-2009,12:00,,,,,,,,,,,,
07-01-2009,13:00,,,,,,,,,,,,
07-01-2009,14:00,,,,,,,,,,,,
07-01-2009,15:00,,,,,,,,,,,,
07-01-2009,16:00,,,,,,,,,,,,
07-01-2009,17:00,,,,,,,,,,,,
07-01-2009,18:00,,,,,,,,,,,,
07-01-2009,19:00,,,,,,,,,,,,
07-01-2009,20:00,,,,,,,,,,,,
07-01-2009,21:00,,,,,,,,,,,,
07-01-2009,22:00,,,,,,,,,,,,
07-01-2009,23:00,,,,,,,,,,,,
07-01-2009,24:00,,,,,,,,,,,,
08-01-2009,01:00,,,,,,,,,,,,
08-01-2009,02:00,,,,,,,,,,,,
08-01-2009,03:00,,,,,,,,,,,,
08-01-2009,04:00,,,,,,,,,,,,
08-01-2009,05:00,,,,,,,,,,,,
08-01-2009,06:00,,,,,,,,,,,,
08-01-2009,07:00,,,,,,,,,,,,
08-01-2009,08:00,,,,,,,,,,,,
08-01-2009,09:00,,,,,,,,,,,,
08-01-2009,10:00,,,,,,,,,,,,
08-01-2009,11:00,,,,,,,,,,,,
08-01-2009,12:00,,,,,,,,,,,,
08-01-2009,13:00,,,,,,,,,,,,
08-01-2009,14:00,,,,,,,,,,,,
08-01-2009,15:00,,,,,,,,,,,,
08-01-2009,16:00,,,,,,,,,,,,
08-01-2009,17:00,,,,,,,,,,,,
08-01-2009,18:00,,,,,,,,,,,,
08-01-2009,19:00,,,,,,,,,,,,
08-01-2009,20:00,,,,,,,,,,,,
08-01-2009,21:00,,,,,,,,,,,,
08-01-2009,22:00,,,,,,,,,,,,
08-01-2009,23:00,,,,,,,,,,,,
08-01-2009,24:00,,,,,,,,,,,,
09-01-2009,01:00,,,,,,,,,,,,
09-01-2009,02:00,,,,,,,,,,,,
09-01-2009,03:00,,,,,,,,,,,,
09-01-2009,04:00,,,,,,,,,,,,
09-01-2009,05:00,,,,,,,,,,,,
09-01-2009,06:00,,,,,,,,,,,,
09-01-2009,07:00,,,,,,,,,,,,
09-01-2009,08:00,,,,,,,,,,,,
09-01-2009,09:00,,,,,,,,,,,,
09-01-2009,10:00,,,,,,,,,,,,
09-01-2009,11:00,,,,,,,,,,,,
09-01-2009,12:00,,,,,,,,,,,,
09-01-2009,13:00,,,,,,,,,,,,
09-01-2009,14:00,,,,,,,,,,,,
09-01-2009,15:00,,,,,,,,,,,,
09-01-2009,16:00,,,,,,,,,,,,
09-01-2009,17:00,,,,,,,,,,,,
09-01-2009,18:00,,,,,,,,,,,,
09-01-2009,19:00,,,,,,,,,,,,
09-01-2009,20:00,,,,,,,,,,,,
09-01-2009,21:00,,,,,,,,,,,,
09-01-2009,22:00,,,,,,,,,,,,
09-01-2009,23:00,,,,,,,,,,,,
09-01-2009,24:00,,,,,,,,,,,,
10-01-2009,01:00,,,,,,,,,,,,
10-01-2009,02:00,,,,,,,,,,,,
10-01-2009,03:00,,,,,,,,,,,,
10-01-2009,04:00,,,,,,,,,,,,
10-01-2009,05:00,,,,,,,,,,,,
10-01-2009,06:00,,,,,,,,,,,,
10-01-2009,07:00,,,,,,,,,,,,
10-01-2009,08:00,,,,,,,,,,,,
10-01-2009,09:00,,,,,,,,,,,,
10-01-2009,10:00,,,,,,,,,,,,
10-01-2009,11:00,,,,,,,,,,,,
10-01-2009,12:00,,,,,,,,,,,,
10-01-2009,13:00,,,,,,,,,,,,
10-01-2009,14:00,,,,,,,,,,,,
10-01-2009,15:00,,,,,,,,,,,,
10-01-2009,16:00,,,,,,,,,,,,
10-01-2009,17:00,,,,,,,,,,,,
10-01-2009,18:00,,,,,,,,,,,,
10-01-2009,19:00,,,,,,,,,,,,
10-01-2009,20:00,,,,,,,,,,,,
10-01-2009,21:00,,,,,,,,,,,,
10-01-2009,22:00,,,,,,,,,,,,
10-01-2009,23:00,,,,,,,,,,,,
10-01-2009,24:00,,,,,,,,,,,,
11-01-2009,01:00,,,,,,,,,,,,
11-01-2009,02:00,,,,,,,,,,,,
11-01-2009,03:00,,,,,,,,,,,,
11-01-2009,04:00,,,,,,,,,,,,
11-01-2009,05:00,,,,,,,,,,,,
11-01-2009,06:00,,,,,,,,,,,,
11-01-2009,07:00,,,,,,,,,,,,
11-01-2009,08:00,,,,,,,,,,,,
11-01-2009,09:00,,,,,,,,,,,,
11-01-2009,10:00,,,,,,,,,,,,
11-01-2009,11:00,,,,,,,,,,,,
11-01-2009,12:00,,,,,,,,,,,,
11-01-2009,13:00,,,,,,,,,,,,
11-01-2009,14:00,,,,,,,,,,,,
11-01-2009,15:00,,,,,,,,,,,,
11-01-2009,16:00,,,,,,,,,,,,
11-01-2009,17:00,,,,,,,,,,,,
11-01-2009,18:00,,,,,,,,,,,,
11-01-2009,19:00,,,,,,,,,,,,
11-01-2009,20:00,,,,,,,,,,,,
11-01-2009,21:00,,,,,,,,,,,,
11-01-2009,22:00,,,,,,,,,,,,
11-01-2009,23:00,,,,,,,,,,,,
11-01-2009,24:00,,,,,,,,,,,,
12-01-2009,01:00,,,,,,,,,,,,
12-01-2009,02:00,,,,,,,,,,,,
12-01-2009,03:00,,,,,,,,,,,,
12-01-2009,04:00,,,,,,,,,,,,
12-01-2009,05:00,,,,,,,,,,,,
12-01-2009,06:00,,,,,,,,,,,,
12-01-2009,07:00,,,,,,,,,,,,
12-01-2009,08:00,,,,,,,,,,,,
12-01-2009,09:00,,,,,,,,,,,,
12-01-2009,10:00,,,,,,,,,,,,
12-01-2009,11:00,,,,,,,,,,,,
12-01-2009,12:00,,,,,,,,,,,,
12-01-2009,13:00,,,,,,,,,,,,
12-01-2009,14:00,,,,,,,,,,,,
12-01-2009,15:00,,,,,,,,,,,,
12-01-2009,16:00,,,,,,,,,,,,
12-01-2009,17:00,,,,,,,,,,,,
12-01-2009,18:00,,,,,,,,,,,,
12-01-2009,19:00,,,,,,,,,,,,
12-01-2009,20:00,,,,,,,,,,,,
12-01-2009,21:00,,,,,,,,,,,,
12-01-2009,22:00,,,,,,,,,,,,
12-01-2009,23:00,,,,,,,,,,,,
12-01-2009,24:00,,,,,,,,,,,,
13-01-2009,01:00,,,,,,,,,,,,
13-01-2009,02:00,,,,,,,,,,,,
13-01-2009,03:00,,,,,,,,,,,,
13-01-2009,04:00,,,,,,,,,,,,
13-01-2009,05:00,,,,,,,,,,,,
13-01-2009,06:00,,,,,,,,,,,,
13-01-2009,07:00,,,,,,,,,,,,
13-01-2009,08:00,,,,,,,,,,,,
13-01-2009,09:00,,,,,,,,,,,,
13-01-2009,10:00,,,,,,,,,,,,
13-01-2009,11:00,,,,,,,,,,,,
13-01-2009,12:00,,,,,,,,,,,,
13-01-2009,13:00,,,,,,,,,,,,
13-01-2009,14:00,,,,,,,,,,,,
13-01-2009,15:00,,,,,,,,,,,,
13-01-2009,16:00,,,,,,,,,,,,
13-01-2009,17:00,,,,,,,,,,,,
13-01-2009,18:00,,,,,,,,,,,,
13-01-2009,19:00,,,,,,,,,,,,
13-01-2009,20:00,,,,,,,,,,,,
13-01-2009,21:00,,,,,,,,,,,,
13-01-2009,22:00,,,,,,,,,,,,
13-01-2009,23:00,,,,,,,,,,,,
13-01-2009,24:00,,,,,,,,,,,,
14-01-2009,01:00,,,,,,,,,,,,
14-01-2009,02:00,,,,,,,,,,,,
14-01-2009,03:00,,,,,,,,,,,,
14-01-2009,04:00,,,,,,,,,,,,
14-01-2009,05:00,,,,,,,,,,,,
14-01-2009,06:00,,,,,,,,,,,,
14-01-2009,07:00,,,,,,,,,,,,
14-01-2009,08:00,,,,,,,,,,,,
14-01-2009,09:00,,,,,,,,,,,,
14-01-2009,10:00,,,,,,,,,,,,
14-01-2009,11:00,,,,,,,,,,,,
14-01-2009,12:00,,,,,,,,,,,,
14-01-2009,13:00,,,,,,,,,,,,
14-01-2009,14:00,,,,,,,,,,,,
14-01-2009,15:00,,,,,,,,,,,,
14-01-2009,16:00,,,,,,,,,,,,
14-01-2009,17:00,,,,124,R,ugm-3,111,R,ugm-3,300,R,ugm-3
14-01-2009,18:00,,,,134,R,ugm-3,115,R,ugm-3,319,R,ugm-3
14-01-2009,19:00,,,,51,R,ugm-3,76,R,ugm-3,155,R,ugm-3
14-01-2009,20:00,,,,25,R,ugm-3,42,R,ugm-3,80,R,ugm-3
14-01-2009,21:00,,,,11,R,ugm-3,32,R,ugm-3,50,R,ugm-3
14-01-2009,22:00,,,,15,R,ugm-3,32,R,ugm-3,55,R,ugm-3
14-01-2009,23:00,,,,8,R,ugm-3,27,R,ugm-3,38,R,ugm-3
14-01-2009,24:00,,,,9,R,ugm-3,29,R,ugm-3,42,R,ugm-3
15-01-2009,01:00,,,,1,R,ugm-3,21,R,ugm-3,23,R,ugm-3
15-01-2009,02:00,,,,3,R,ugm-3,23,R,ugm-3,27,R,ugm-3
15-01-2009,03:00,,,,5,R,ugm-3,15,R,ugm-3,23,R,ugm-3
15-01-2009,04:00,,,,1,R,ugm-3,13,R,ugm-3,15,R,ugm-3
15-01-2009,05:00,,,,5,R,ugm-3,13,R,ugm-3,21,R,ugm-3
15-01-2009,06:00,,,,15,R,ugm-3,21,R,ugm-3,44,R,ugm-3
15-01-2009,07:00,,,,43,R,ugm-3,44,R,ugm-3,109,R,ugm-3
15-01-2009,08:00,,,,61,R,ugm-3,67,R,ugm-3,160,R,ugm-3
15-01-2009,09:00,,,,106,R,ugm-3,92,R,ugm-3,254,R,ugm-3
15-01-2009,10:00,,,,83,R,ugm-3,73,R,ugm-3,199,R,ugm-3
15-01-2009,11:00,,,,64,R,ugm-3,52,R,ugm-3,149,R,ugm-3
15-01-2009,12:00,,,,83,R,ugm-3,63,R,ugm-3,189,R,ugm-3
15-01-2009,13:00,,,,78,R,ugm-3,67,R,ugm-3,185,R,ugm-3
15-01-2009,14:00,,,,51,R,ugm-3,44,R,ugm-3,122,R,ugm-3
15-01-2009,15:00,,,,56,R,ugm-3,53,R,ugm-3,139,R,ugm-3
15-01-2009,16:00,,,,60,R,ugm-3,57,R,ugm-3,149,R,ugm-3
15-01-2009,17:00,,,,60,R,ugm-3,63,R,ugm-3,155,R,ugm-3
15-01-2009,18:00,,,,51,R,ugm-3,63,R,ugm-3,141,R,ugm-3
15-01-2009,19:00,,,,43,R,ugm-3,59,R,ugm-3,124,R,ugm-3
15-01-2009,20:00,,,,43,R,ugm-3,55,R,ugm-3,120,R,ugm-3
15-01-2009,21:00,,,,26,R,ugm-3,48,R,ugm-3,88,R,ugm-3
15-01-2009,22:00,,,,23,R,ugm-3,42,R,ugm-3,76,R,ugm-3
15-01-2009,23:00,,,,10,R,ugm-3,29,R,ugm-3,44,R,ugm-3
15-01-2009,24:00,,,,13,R,ugm-3,27,R,ugm-3,46,R,ugm-3
16-01-2009,01:00,,,,3,R,ugm-3,25,R,ugm-3,29,R,ugm-3
16-01-2009,02:00,,,,3,R,ugm-3,21,R,ugm-3,25,R,ugm-3
16-01-2009,03:00,,,,1,R,ugm-3,19,R,ugm-3,21,R,ugm-3
16-01-2009,04:00,,,,6,R,ugm-3,25,R,ugm-3,34,R,ugm-3
16-01-2009,05:00,,,,14,R,ugm-3,34,R,ugm-3,55,R,ugm-3
16-01-2009,06:00,,,,24,R,ugm-3,38,R,ugm-3,74,R,ugm-3
16-01-2009,07:00,,,,33,R,ugm-3,57,R,ugm-3,107,R,ugm-3
16-01-2009,08:00,,,,78,R,ugm-3,84,R,ugm-3,202,R,ugm-3
16-01-2009,09:00,,,,83,R,ugm-3,94,R,ugm-3,220,R,ugm-3
16-01-2009,10:00,,,,84,R,ugm-3,88,R,ugm-3,216,R,ugm-3
16-01-2009,11:00,,,,75,R,ugm-3,69,R,ugm-3,183,R,ugm-3
16-01-2009,12:00,,,,63,R,ugm-3,59,R,ugm-3,155,R,ugm-3
16-01-2009,13:00,,,,70,R,ugm-3,61,R,ugm-3,168,R,ugm-3
16-01-2009,14:00,,,,56,R,ugm-3,61,R,ugm-3,147,R,ugm-3
16-01-2009,15:00,,,,59,R,ugm-3,65,R,ugm-3,155,R,ugm-3
16-01-2009,16:00,,,,64,R,ugm-3,69,R,ugm-3,166,R,ugm-3
16-01-2009,17:00,,,,55,R,ugm-3,67,R,ugm-3,151,R,ugm-3
16-01-2009,18:00,,,,48,R,ugm-3,65,R,ugm-3,138,R,ugm-3
16-01-2009,19:00,,,,28,R,ugm-3,44,R,ugm-3,86,R,ugm-3
16-01-2009,20:00,,,,20,R,ugm-3,32,R,ugm-3,63,R,ugm-3
16-01-2009,21:00,,,,8,R,ugm-3,19,R,ugm-3,31,R,ugm-3
16-01-2009,22:00,,,,9,R,ugm-3,15,R,ugm-3,29,R,ugm-3
16-01-2009,23:00,,,,5,R,ugm-3,11,R,ugm-3,19,R,ugm-3
16-01-2009,24:00,,,,3,R,ugm-3,11,R,ugm-3,15,R,ugm-3
17-01-2009,01:00,,,,5,R,ugm-3,10,R,ugm-3,17,R,ugm-3
17-01-2009,02:00,,,,1,R,ugm-3,10,R,ugm-3,11,R,ugm-3
17-01-2009,03:00,,,,5,R,ugm-3,10,R,ugm-3,17,R,ugm-3
17-01-2009,04:00,,,,0,R,ugm-3,6,R,ugm-3,6,R,ugm-3
17-01-2009,05:00,,,,3,R,ugm-3,4,R,ugm-3,8,R,ugm-3
17-01-2009,06:00,,,,5,R,ugm-3,11,R,ugm-3,19,R,ugm-3
17-01-2009,07:00,,,,23,R,ugm-3,25,R,ugm-3,59,R,ugm-3
17-01-2009,08:00,,,,29,R,ugm-3,34,R,ugm-3,78,R,ugm-3
17-01-2009,09:00,,,,45,R,ugm-3,53,R,ugm-3,122,R,ugm-3
17-01-2009,10:00,,,,54,R,ugm-3,69,R,ugm-3,151,R,ugm-3
17-01-2009,11:00,,,,53,R,ugm-3,69,R,ugm-3,149,R,ugm-3
17-01-2009,12:00,,,,30,R,ugm-3,52,R,ugm-3,97,R,ugm-3
17-01-2009,13:00,,,,41,R,ugm-3,48,R,ugm-3,111,R,ugm-3
17-01-2009,14:00,,,,33,R,ugm-3,46,R,ugm-3,96,R,ugm-3
17-01-2009,15:00,,,,34,R,ugm-3,50,R,ugm-3,101,R,ugm-3
17-01-2009,16:00,,,,29,R,ugm-3,42,R,ugm-3,86,R,ugm-3
17-01-2009,17:00,,,,20,R,ugm-3,27,R,ugm-3,57,R,ugm-3
17-01-2009,18:00,,,,14,R,ugm-3,19,R,ugm-3,40,R,ugm-3
17-01-2009,19:00,,,,11,R,ugm-3,13,R,ugm-3,31,R,ugm-3
17-01-2009,20:00,,,,10,R,ugm-3,13,R,ugm-3,29,R,ugm-3
17-01-2009,21:00,,,,13,R,ugm-3,17,R,ugm-3,36,R,ugm-3
17-01-2009,22:00,,,,9,R,ugm-3,21,R,ugm-3,34,R,ugm-3
17-01-2009,23:00,,,,10,R,ugm-3,17,R,ugm-3,32,R,ugm-3
17-01-2009,24:00,,,,9,R,ugm-3,21,R,ugm-3,34,R,ugm-3
18-01-2009,01:00,,,,10,R,ugm-3,25,R,ugm-3,40,R,ugm-3
18-01-2009,02:00,,,,5,R,ugm-3,15,R,ugm-3,23,R,ugm-3
18-01-2009,03:00,,,,5,R,ugm-3,11,R,ugm-3,19,R,ugm-3
18-01-2009,04:00,,,,0,R,ugm-3,4,R,ugm-3,4,R,ugm-3
18-01-2009,05:00,,,,1,R,ugm-3,6,R,ugm-3,8,R,ugm-3
18-01-2009,06:00,,,,6,R,ugm-3,17,R,ugm-3,27,R,ugm-3
18-01-2009,07:00,,,,13,R,ugm-3,27,R,ugm-3,46,R,ugm-3
18-01-2009,08:00,,,,18,R,ugm-3,44,R,ugm-3,71,R,ugm-3
18-01-2009,09:00,,,,31,R,ugm-3,61,R,ugm-3,109,R,ugm-3
18-01-2009,10:00,,,,49,R,ugm-3,71,R,ugm-3,145,R,ugm-3
18-01-2009,11:00,,,,55,R,ugm-3,69,R,ugm-3,153,R,ugm-3
18-01-2009,12:00,,,,48,R,ugm-3,59,R,ugm-3,132,R,ugm-3
18-01-2009,13:00,,,,46,R,ugm-3,59,R,ugm-3,130,R,ugm-3
18-01-2009,14:00,,,,45,R,ugm-3,57,R,ugm-3,126,R,ugm-3
18-01-2009,15:00,,,,51,R,ugm-3,61,R,ugm-3,139,R,ugm-3
18-01-2009,16:00,,,,36,R,ugm-3,52,R,ugm-3,107,R,ugm-3
18-01-2009,17:00,,,,35,R,ugm-3,57,R,ugm-3,111,R,ugm-3
18-01-2009,18:00,,,,20,R,ugm-3,36,R,ugm-3,67,R,ugm-3
18-01-2009,19:00,,,,18,R,ugm-3,40,R,ugm-3,67,R,ugm-3
18-01-2009,20:00,,,,20,R,ugm-3,50,R,ugm-3,80,R,ugm-3
18-01-2009,21:00,,,,8,R,ugm-3,31,R,ugm-3,42,R,ugm-3
18-01-2009,22:00,,,,10,R,ugm-3,25,R,ugm-3,40,R,ugm-3
18-01-2009,23:00,,,,8,R,ugm-3,27,R,ugm-3,38,R,ugm-3
18-01-2009,24:00,,,,8,R,ugm-3,23,R,ugm-3,34,R,ugm-3
19-01-2009,01:00,,,,1,R,ugm-3,19,R,ugm-3,21,R,ugm-3
19-01-2009,02:00,,,,3,R,ugm-3,8,R,ugm-3,11,R,ugm-3
19-01-2009,03:00,,,,4,R,ugm-3,8,R,ugm-3,13,R,ugm-3
19-01-2009,04:00,,,,3,R,ugm-3,11,R,ugm-3,15,R,ugm-3
19-01-2009,05:00,,,,8,R,ugm-3,13,R,ugm-3,25,R,ugm-3
19-01-2009,06:00,,,,28,R,ugm-3,44,R,ugm-3,86,R,ugm-3
19-01-2009,07:00,,,,44,R,ugm-3,65,R,ugm-3,132,R,ugm-3
19-01-2009,08:00,,,,110,R,ugm-3,115,R,ugm-3,283,R,ugm-3
19-01-2009,09:00,,,,100,R,ugm-3,107,R,ugm-3,260,R,ugm-3
19-01-2009,10:00,,,,121,R,ugm-3,105,R,ugm-3,290,R,ugm-3
19-01-2009,11:00,,,,56,R,ugm-3,53,R,ugm-3,139,R,ugm-3
19-01-2009,12:00,,,,73,R,ugm-3,82,R,ugm-3,193,R,ugm-3
19-01-2009,13:00,,,,66,R,ugm-3,61,R,ugm-3,162,R,ugm-3
19-01-2009,14:00,,,,70,R,ugm-3,63,R,ugm-3,170,R,ugm-3
19-01-2009,15:00,,,,105,R,ugm-3,84,R,ugm-3,244,R,ugm-3
19-01-2009,16:00,,,,,,,,,,,,
19-01-2009,17:00,,,,80,R,ugm-3,90,R,ugm-3,212,R,ugm-3
19-01-2009,18:00,,,,85,R,ugm-3,101,R,ugm-3,231,R,ugm-3
19-01-2009,19:00,,,,66,R,ugm-3,96,R,ugm-3,197,R,ugm-3
19-01-2009,20:00,,,,48,R,ugm-3,78,R,ugm-3,151,R,ugm-3
19-01-2009,21:00,,,,21,R,ugm-3,48,R,ugm-3,80,R,ugm-3
19-01-2009,22:00,,,,15,R,ugm-3,23,R,ugm-3,46,R,ugm-3
19-01-2009,23:00,,,,9,R,ugm-3,19,R,ugm-3,32,R,ugm-3
19-01-2009,24:00,,,,10,R,ugm-3,19,R,ugm-3,34,R,ugm-3
20-01-2009,01:00,,,,6,R,ugm-3,19,R,ugm-3,29,R,ugm-3
20-01-2009,02:00,,,,8,R,ugm-3,21,R,ugm-3,32,R,ugm-3
20-01-2009,03:00,,,,4,R,ugm-3,11,R,ugm-3,17,R,ugm-3
20-01-2009,04:00,,,,3,R,ugm-3,4,R,ugm-3,8,R,ugm-3
20-01-2009,05:00,,,,13,R,ugm-3,21,R,ugm-3,40,R,ugm-3
20-01-2009,06:00,,,,23,R,ugm-3,38,R,ugm-3,73,R,ugm-3
20-01-2009,07:00,,,,45,R,ugm-3,67,R,ugm-3,136,R,ugm-3
20-01-2009,08:00,,,,113,R,ugm-3,109,R,ugm-3,281,R,ugm-3
20-01-2009,09:00,,,,114,R,ugm-3,120,R,ugm-3,294,R,ugm-3
20-01-2009,10:00,,,,110,R,ugm-3,101,R,ugm-3,269,R,ugm-3
20-01-2009,11:00,,,,90,R,ugm-3,78,R,ugm-3,216,R,ugm-3
20-01-2009,12:00,,,,100,R,ugm-3,82,R,ugm-3,235,R,ugm-3
20-01-2009,13:00,,,,78,R,ugm-3,69,R,ugm-3,187,R,ugm-3
20-01-2009,14:00,,,,91,R,ugm-3,74,R,ugm-3,214,R,ugm-3
20-01-2009,15:00,,,,84,R,ugm-3,84,R,ugm-3,212,R,ugm-3
20-01-2009,16:00,,,,91,R,ugm-3,86,R,ugm-3,225,R,ugm-3
20-01-2009,17:00,,,,104,R,ugm-3,109,R,ugm-3,267,R,ugm-3
20-01-2009,18:00,,,,61,R,ugm-3,96,R,ugm-3,189,R,ugm-3
20-01-2009,19:00,,,,26,R,ugm-3,71,R,ugm-3,111,R,ugm-3
20-01-2009,20:00,,,,33,R,ugm-3,69,R,ugm-3,118,R,ugm-3
20-01-2009,21:00,,,,19,R,ugm-3,61,R,ugm-3,90,R,ugm-3
20-01-2009,22:00,,,,35,R,ugm-3,59,R,ugm-3,113,R,ugm-3
20-01-2009,23:00,,,,23,R,ugm-3,46,R,ugm-3,80,R,ugm-3
20-01-2009,24:00,,,,20,R,ugm-3,44,R,ugm-3,74,R,ugm-3
21-01-2009,01:00,,,,18,R,ugm-3,34,R,ugm-3,61,R,ugm-3
21-01-2009,02:00,,,,1,R,ugm-3,15,R,ugm-3,17,R,ugm-3
21-01-2009,03:00,,,,28,R,ugm-3,29,R,ugm-3,71,R,ugm-3
21-01-2009,04:00,,,,16,R,ugm-3,31,R,ugm-3,55,R,ugm-3
21-01-2009,05:00,,,,54,R,ugm-3,46,R,ugm-3,128,R,ugm-3
21-01-2009,06:00,,,,70,R,ugm-3,59,R,ugm-3,166,R,ugm-3
21-01-2009,07:00,,,,209,R,ugm-3,105,R,ugm-3,424,R,ugm-3
21-01-2009,08:00,,,,146,R,ugm-3,107,R,ugm-3,330,R,ugm-3
21-01-2009,09:00,,,,144,R,ugm-3,99,R,ugm-3,319,R,ugm-3
21-01-2009,10:00,,,,,,,,,,,,
21-01-2009,11:00,,,,,,,,,,,,
21-01-2009,12:00,,,,,,,,,,,,
21-01-2009,13:00,,,,78,R,ugm-3,71,R,ugm-3,189,R,ugm-3
21-01-2009,14:00,,,,84,R,ugm-3,73,R,ugm-3,201,R,ugm-3
21-01-2009,15:00,,,,66,R,ugm-3,69,R,ugm-3,170,R,ugm-3
21-01-2009,16:00,,,,69,R,ugm-3,74,R,ugm-3,180,R,ugm-3
21-01-2009,17:00,,,,69,R,ugm-3,74,R,ugm-3,180,R,ugm-3
21-01-2009,18:00,,,,45,R,ugm-3,59,R,ugm-3,128,R,ugm-3
21-01-2009,19:00,,,,29,R,ugm-3,50,R,ugm-3,94,R,ugm-3
21-01-2009,20:00,,,,21,R,ugm-3,29,R,ugm-3,61,R,ugm-3
21-01-2009,21:00,,,,11,R,ugm-3,21,R,ugm-3,38,R,ugm-3
21-01-2009,22:00,,,,10,R,ugm-3,21,R,ugm-3,36,R,ugm-3
21-01-2009,23:00,,,,9,R,ugm-3,15,R,ugm-3,29,R,ugm-3
21-01-2009,24:00,,,,4,R,ugm-3,10,R,ugm-3,15,R,ugm-3
22-01-2009,01:00,,,,5,R,ugm-3,11,R,ugm-3,19,R,ugm-3
22-01-2009,02:00,,,,3,R,ugm-3,6,R,ugm-3,10,R,ugm-3
22-01-2009,03:00,,,,5,R,ugm-3,6,R,ugm-3,13,R,ugm-3
22-01-2009,04:00,,,,1,R,ugm-3,4,R,ugm-3,6,R,ugm-3
22-01-2009,05:00,,,,9,R,ugm-3,10,R,ugm-3,23,R,ugm-3
22-01-2009,06:00,,,,10,R,ugm-3,13,R,ugm-3,29,R,ugm-3
22-01-2009,07:00,,,,21,R,ugm-3,32,R,ugm-3,65,R,ugm-3
22-01-2009,08:00,,,,64,R,ugm-3,67,R,ugm-3,164,R,ugm-3
22-01-2009,09:00,,,,133,R,ugm-3,118,R,ugm-3,321,R,ugm-3
22-01-2009,10:00,,,,143,R,ugm-3,107,R,ugm-3,325,R,ugm-3
22-01-2009,11:00,,,,119,R,ugm-3,96,R,ugm-3,277,R,ugm-3
22-01-2009,12:00,,,,109,R,ugm-3,82,R,ugm-3,248,R,ugm-3
22-01-2009,13:00,,,,114,R,ugm-3,82,R,ugm-3,256,R,ugm-3
22-01-2009,14:00,,,,86,R,ugm-3,74,R,ugm-3,206,R,ugm-3
22-01-2009,15:00,,,,86,R,ugm-3,69,R,ugm-3,201,R,ugm-3
22-01-2009,16:00,,,,106,R,ugm-3,84,R,ugm-3,246,R,ugm-3
22-01-2009,17:00,,,,110,R,ugm-3,113,R,ugm-3,281,R,ugm-3
22-01-2009,18:00,,,,94,R,ugm-3,111,R,ugm-3,254,R,ugm-3
22-01-2009,19:00,,,,63,R,ugm-3,90,R,ugm-3,185,R,ugm-3
22-01-2009,20:00,,,,41,R,ugm-3,63,R,ugm-3,126,R,ugm-3
22-01-2009,21:00,,,,29,R,ugm-3,50,R,ugm-3,94,R,ugm-3
22-01-2009,22:00,,,,29,R,ugm-3,48,R,ugm-3,92,R,ugm-3
22-01-2009,23:00,,,,16,R,ugm-3,42,R,ugm-3,67,R,ugm-3
22-01-2009,24:00,,,,9,R,ugm-3,25,R,ugm-3,38,R,ugm-3
23-01-2009,01:00,,,,4,R,ugm-3,11,R,ugm-3,17,R,ugm-3
23-01-2009,02:00,,,,1,R,ugm-3,10,R,ugm-3,11,R,ugm-3
23-01-2009,03:00,,,,5,R,ugm-3,10,R,ugm-3,17,R,ugm-3
23-01-2009,04:00,,,,4,R,ugm-3,8,R,ugm-3,13,R,ugm-3
23-01-2009,05:00,,,,5,R,ugm-3,13,R,ugm-3,21,R,ugm-3
23-01-2009,06:00,,,,29,R,ugm-3,34,R,ugm-3,78,R,ugm-3
23-01-2009,07:00,,,,73,R,ugm-3,61,R,ugm-3,172,R,ugm-3